Terug naar catalogus

STARLINK-5176

ActiefCommunicatieVLEO
NORAD 54053·PAYLOAD·🇺🇸 United States

Gelanceerd Oct 20, 2022 vanaf Cape Canaveral Space Force Station

Loading…

Volgende Passages (komende 24 uur)

TLE

VersSource: CelesTrak SupGP

Epoch: Sep 15, 2026, 01:22 UTC

1 54053C 22136C   26258.05743056 -.00021710  00000+0 -69821-3 0  2583
2 54053  53.1573 200.1973 0001620  89.3840 152.6134 15.31708904    17

Volg STARLINK-5176 in realtime met AllMySat

Download on the App Store